#timestamp,LO_Frequency,Hit,StdDev 
1508770815.4,286046995.7,N
1508770835.3,286046993.6,N
1508770855.1,286046995.4,N
1508770856.0,286046995.4,N
1508770875.8,286046995.7,N
1508770895.7,286046994.9,N
1508770915.5,286046999.5,N
1508770935.3,286046998.1,N
1508770955.2,286047000.2,N
1508770975.9,286047002.8,N
1508770995.7,286046995.1,N
1508771015.6,286046996.4,N
1508771035.4,286046993.8,N
1508771055.2,286046997.8,N
1508771075.1,286046997.9,N
1508771076.0,286046997.9,N
1508771095.8,286046996.7,N
1508771115.6,286046998.1,N
1508771135.5,286046998.8,N
1508771155.3,286046997.9,N
1508771175.1,286046999.7,N
1508771195.9,286047001.2,N
1508771215.7,286047002.1,N
1508771235.5,286046998.1,N
1508771255.4,286047001.6,N
1508771275.2,286047000.6,N
1508771295.0,286046998.9,N
1508771296.0,286046998.9,N
1508771315.8,286046998.8,N
1508771335.6,286046999.6,N
1508771355.5,286046997.0,N
1508771375.3,286047003.0,N
1508771395.1,286046999.1,N
1508771415.9,286046997.7,N
1508771435.7,286046994.8,N
1508771455.5,286046992.2,Y
1508771475.4,286046995.0,P
1508771495.2,286046999.4,N
1508771515.0,286046997.0,N
1508771515.9,286046997.0,N
1508771535.8,286046999.3,N
1508771555.6,286047004.3,N
1508771575.4,286047004.4,N
1508771595.3,286047004.8,N
1508771615.1,286047003.7,N
1508771635.9,286047007.4,N
1508771655.7,286047008.7,N
1508771675.5,286047006.0,N
1508771695.4,286047007.1,N
1508771715.2,286047006.5,N
1508771735.0,286047005.0,N
1508771735.9,286047005.0,N
1508771755.8,286047002.5,N
1508771775.6,286047005.0,N
1508771795.4,286047010.8,N
1508771815.3,286047009.2,N
1508771835.1,286047008.5,N
1508771836.0,286047008.5,N
1508771855.8,286047011.5,N
1508771875.7,286047007.9,N
1508771895.5,286047005.8,N
1508771915.3,286047006.5,N
1508771935.2,286047009.9,N
1508771955.0,286047010.0,N
1508771955.9,286047010.0,N
1508771975.7,286047006.2,N
1508771995.6,286047006.9,N
1508772015.4,286047005.7,N
1508772035.2,286047008.9,N
1508772055.1,286047011.5,Y
1508772056.0,286047011.5,P
1508772075.8,286047003.3,N
1508772095.7,286047004.6,N
1508772115.5,286047004.9,N
1508772135.3,286047007.5,N
1508772155.2,286047005.8,N
1508772175.9,286047003.8,N
1508772195.7,286047007.2,N
1508772215.6,286047003.8,N
1508772235.4,286047002.1,N
1508772255.2,286047003.9,N
1508772275.1,286046999.8,N
1508772276.0,286046999.8,N
1508772295.8,286046998.3,N
1508772315.6,286046993.9,N
1508772335.5,286046995.9,N
1508772355.3,286046996.1,N
1508772375.1,286046994.1,N
1508772395.9,286046996.1,N
1508772415.7,286046999.0,N
1508772435.5,286046997.4,N
1508772455.4,286046998.9,N
1508772475.2,286047002.2,N
1508772495.0,286047001.4,N
1508772496.0,286047001.4,N
1508772515.8,286046998.6,N
1508772535.6,286047002.6,N
1508772555.5,286047005.5,N
1508772575.3,286047001.5,N
1508772595.1,286047002.2,N
1508772615.9,286046998.1,N
1508772635.7,286047000.5,N
1508772655.5,286047001.0,N
1508772675.4,286047002.7,N
1508772695.2,286047002.7,N
1508772715.0,286046998.9,N
1508772715.9,286046998.9,N
1508772735.8,286047002.7,N
1508772755.6,286046998.1,N
1508772775.4,286046999.9,N
1508772795.3,286047002.1,N
1508772815.1,286047001.7,N
1508772835.8,286046999.4,N
1508772855.7,286046996.5,N
1508772875.5,286046998.7,N
1508772895.3,286047002.5,N
1508772915.2,286047004.3,N
1508772935.9,286047000.2,N
1508772955.7,286047001.0,N
1508772975.6,286047002.3,N
1508772995.4,286047003.3,N
1508773015.2,286047001.7,N
1508773035.1,286047004.2,N
1508773036.0,286047004.2,N
1508773055.8,286047003.7,N
1508773075.6,286047003.5,N
1508773095.5,286047002.6,N
1508773115.3,286047002.0,N
1508773135.2,286047005.5,N
1508773155.9,286047006.9,Y
1508773175.7,286047002.8,P
1508773195.6,286046997.0,P
1508773215.4,286046998.2,N
1508773235.2,286046997.1,N
1508773255.1,286046998.4,N
1508773256.0,286046998.4,N
1508773275.8,286046998.9,N
1508773295.6,286047000.5,N
1508773315.5,286046998.1,N
1508773335.3,286047001.1,N
1508773355.1,286047000.4,N
1508773375.9,286047000.3,N
1508773395.7,286046998.1,N
1508773415.5,286046999.0,N
1508773435.4,286046997.9,N
1508773455.2,286046994.3,Y
1508773475.0,286046998.8,P
1508773476.0,286046998.8,P
1508773495.8,286047001.6,P
1508773515.6,286046998.3,N
1508773535.5,286046998.7,N
1508773555.3,286046996.1,Y
1508773575.1,286046995.8,P
1508773595.9,286046993.5,P
1508773615.7,286046994.4,N
1508773635.5,286046995.3,N
1508773655.4,286046999.5,N
1508773675.2,286046996.9,N
1508773695.0,286046996.6,N
1508773695.9,286046996.6,N
1508773715.8,286046995.4,N
1508773735.6,286046997.3,N
1508773755.4,286046999.0,N
1508773775.3,286046998.1,N
1508773795.1,286047000.2,N
1508773815.8,286046999.8,N
1508773835.7,286047003.7,N
1508773855.5,286047003.1,N
1508773875.4,286047009.1,Y
1508773895.2,286047010.2,P
1508773915.0,286047010.6,N
1508773915.9,286047010.6,N
1508773935.8,286047010.2,N
1508773955.6,286047004.8,N
1508773975.4,286047007.5,N
1508773995.3,286047007.6,N
1508774015.1,286047005.4,N
1508774016.0,286047005.4,N
1508774035.8,286047005.8,N
1508774055.7,286047006.5,N
1508774075.5,286047007.2,N
1508774095.3,286047005.5,N
1508774115.2,286047004.3,N
1508774135.0,286047003.8,N
1508774135.9,286047003.8,N
1508774155.7,286047001.7,N
1508774175.6,286047001.7,N
1508774195.4,286047001.7,N
1508774215.2,286047007.1,N
1508774235.1,286047006.8,N
1508774236.0,286047006.8,N
1508774255.8,286047004.8,N
1508774275.7,286047004.0,N
1508774295.5,286047003.6,N
1508774315.3,286047004.8,N
1508774335.2,286047006.9,N
1508774355.9,286047005.0,N
1508774375.7,286047005.2,N
1508774395.6,286047006.6,N
